Skip Page Navigation
NASA JPL Caltech
NASA Logo - Jet Propulsion Laboratory + View the NASA Portal
+ Near-Earth Object (NEO) Program
Search JPL
JPL Home Earth Solar System Stars & Galaxies Technology
JPL Solar System Dynamics
BODIES ORBITS EPHEMERIDES TOOLS PHYSICAL DATA DISCOVERY FAQ SITE MAP
JPL Small-Body Database Browser
Search: [ help ]  
227326 Narodychi (2005 TB152)
Classification: Main-belt Asteroid          SPK-ID: 2227326
Ephemeris | Orbit Diagram | Orbital Elements | Physical Parameters | Discovery Circumstances | Close-Approach Data ]

[ show orbit diagram ]
Orbital Elements at Epoch 2457000.5 (2014-Dec-09.0) TDB
Reference: JPL 8 (heliocentric ecliptic J2000)
 Element Value Uncertainty (1-sigma)   Units 
e .1523945416472783 8.1591e-08  
a 2.410357539430165 2.7015e-08 AU
q 2.043032207002643 1.9343e-07 AU
i 2.590119869328058 9.0305e-06 deg
node 66.06791290199776 0.00017054 deg
peri 26.54593494084445 0.00017492 deg
M 101.1521166805161 3.4172e-05 deg
tp 2456616.445282931355
(2013-Nov-19.94528293)
0.00013156 JED
period 1366.849282861758
3.74
2.2979e-05
6.291e-08
d
yr
n .2633794409624093 4.4279e-09 deg/d
Q 2.777682871857686 3.1132e-08 AU
  Orbit Determination Parameters
   # obs. used (total)      212  
   data-arc span      4064 days (11.13 yr)  
   first obs. used      2002-12-14  
   last obs. used      2014-01-29  
   planetary ephem.      DE431  
   SB-pert. ephem.      SB431-BIG16  
   condition code      0  
   fit RMS      .60624  
   data source      ORB  
   producer      Otto Matic  
   solution date      2014-Jun-16 18:01:18  

Additional Information
 Earth MOID = 1.05981 AU 
 T_jup = 3.503 
[ show covariance matrix ]

Ephemeris | Orbit Diagram | Orbital Elements | Physical Parameters | Discovery Circumstances | Close-Approach Data ]

Physical Parameter Table
Parameter Symbol Value Units Sigma Reference Notes
absolute magnitude H 16.9 mag n/a MPO281219  

227326 Narodychi           Discovered 2005 Oct. 11 at Andrushivka.
Narodychi settlement, located in northern Ukraine, has been known since 1545. During the emergency at the Chernobyl atomic power plant in 1986 the city was seriously affected and recommended for evacuation. However, life in the city goes on.
NOTE: some special characters may not display properly (any characters within {} are an attempt to place the proper accent above a character)
Reference: 20100330/MPCPages.arcLast Updated: 2010-04-05

[ show close-approach data ]
Alternate Designations
 2005 TB152 = 2003 EJ6 
Ephemeris | Orbit Diagram | Orbital Elements | Physical Parameters | Discovery Circumstances | Close-Approach Data ]
ABOUT SSD CREDITS/AWARDS PRIVACY/COPYRIGHT GLOSSARY LINKS
FirstGov 2014-Oct-23 08:42 UT
(server date/time)  
NASA Home Page
Site Manager:   Donald K. Yeomans
Webmaster  Alan B. Chamberlin